Time_in_sec,Mx,My,Mz
1314888380.10733485,0.62079406,0.29595199,-0.43101636
1314888380.15619040,0.62169605,0.29631451,-0.43135798
1314888380.20835900,0.62087768,0.29487962,-0.43424797
1314888380.25621605,0.62081504,0.29513690,-0.43529144
1314888380.30817413,0.62021053,0.29302406,-0.43232530
1314888380.35633373,0.62207723,0.29349181,-0.43196505
1314888380.40834498,0.61943978,0.29329747,-0.43418691
1314888380.44872499,0.62214607,0.29634765,-0.43496647
1314888380.50836968,0.62134552,0.29559776,-0.43292946
1314888380.55620170,0.62011969,0.29598546,-0.43351969
1314888380.60837722,0.62174106,0.29387635,-0.43315446
1314888380.65531325,0.62112015,0.29338515,-0.43253672
1314888380.70441699,0.62002486,0.29303572,-0.43324405
1314888380.75798297,0.62045544,0.29513413,-0.43466264
1314888380.81015682,0.61963165,0.29294047,-0.43547124
1314888380.85525298,0.62094384,0.29562682,-0.43528780
1314888380.90728164,0.62072033,0.29316849,-0.43489316
1314888380.95619130,0.62086052,0.29414690,-0.43463290
1314888380.99654961,0.62143904,0.29474506,-0.43369666
1314888381.05530357,0.62150240,0.29586080,-0.43473929
1314888381.09620070,0.61982888,0.29439864,-0.43417320
1314888381.15630817,0.62169605,0.29631451,-0.43135798
1314888381.20722127,0.62206960,0.29695177,-0.43393701
1314888381.25618386,0.62078977,0.29499525,-0.43347514
1314888381.30819750,0.62044144,0.29351830,-0.43283504
1314888381.35618949,0.61934417,0.29243323,-0.43366694
1314888381.40818763,0.62031817,0.29476851,-0.43479741
1314888381.44504786,0.62074703,0.29463542,-0.43425348
1314888381.50817037,0.62149394,0.29696640,-0.43474779
1314888381.55534530,0.61935103,0.29451728,-0.43329239
1314888381.60833406,0.62085617,0.29424658,-0.43242791
1314888381.65622139,0.62157065,0.29486641,-0.43369019
1314888381.70825362,0.62119210,0.29535791,-0.43332556
1314888381.75620127,0.62159497,0.29513091,-0.43550742
1314888381.80800962,0.62176621,0.29303667,-0.43509340
1314888381.85602236,0.62193006,0.29290655,-0.43456426
1314888381.90819550,0.61965859,0.29291150,-0.43274453
1314888381.94819856,0.62002504,0.29499835,-0.43299875
1314888382.00789070,0.62099415,0.29598522,-0.43437925
1314888382.05621481,0.61802590,0.29551345,-0.43324372
1314888382.11131310,0.62115914,0.29423636,-0.43176213
1314888382.15619016,0.61932719,0.29366314,-0.43380657
1314888382.20773792,0.62172550,0.29439381,-0.43562454
1314888382.25622606,0.62103474,0.29364678,-0.43397075
1314888382.30870724,0.62120432,0.29376090,-0.43331331
1314888382.35588288,0.62045759,0.29339254,-0.43257371
1314888382.40551734,0.62056625,0.29253694,-0.43308049
1314888382.45090032,0.62230873,0.29437771,-0.43468359
1314888382.50731850,0.62134153,0.29758501,-0.43502030
1314888382.55618858,0.62059784,0.29535228,-0.43219081
1314888382.60783768,0.62187654,0.29546899,-0.43289894
1314888382.65532398,0.62136525,0.29301798,-0.43290967
1314888382.70538592,0.62300158,0.29578876,-0.43398982
1314888382.75633216,0.62113822,0.29482943,-0.43434638
1314888382.80733728,0.62187129,0.29554474,-0.43301278
1314888382.85621881,0.62107956,0.29309905,-0.43329880
1314888382.90834188,0.62226599,0.29492739,-0.43311608
1314888382.94823098,0.62025887,0.29544404,-0.43349135
1314888383.00833321,0.62111539,0.29483378,-0.43473706
1314888383.05524039,0.62184882,0.29503444,-0.43119326
1314888383.10818267,0.62084210,0.29444638,-0.43267286
1314888383.15549088,0.62010145,0.29373249,-0.43413669
1314888383.20733285,0.62201238,0.29541895,-0.43287420
1314888383.25537324,0.62174392,0.29434210,-0.43534738
1314888383.30434370,0.62087488,0.29360506,-0.43448198
1314888383.35649991,0.62142414,0.29408631,-0.43406546
1314888383.40718508,0.62124735,0.29444048,-0.43252042
1314888383.44830847,0.62115914,0.29507083,-0.43395761
1314888383.50455689,0.62064338,0.29715985,-0.43348235
1314888383.55636549,0.62180322,0.29504314,-0.43197462
1314888383.60845184,0.62152493,0.29578480,-0.43212530
1314888383.65521097,0.62172824,0.29493475,-0.43327591
1314888383.70732045,0.62099802,0.29483235,-0.43448400
1314888383.75619507,0.62029570,0.29359654,-0.43308654
1314888383.80833840,0.62011671,0.29471117,-0.43375355
1314888383.85532475,0.62094891,0.29285476,-0.43330431
1314888383.89619827,0.61922395,0.29410136,-0.43327975
1314888383.94831991,0.62035066,0.29679999,-0.43401524
1314888384.00825691,0.62167847,0.29700628,-0.43160644
1314888384.05619907,0.62238085,0.29824209,-0.43300393
1314888384.11103868,0.61914808,0.29509741,-0.43445933
1314888384.15619969,0.62180513,0.29479739,-0.43197274
1314888384.20718169,0.62224990,0.29505315,-0.43337747
1314888384.25624514,0.62117893,0.29347199,-0.43381512
1314888384.30818081,0.62003827,0.29457963,-0.43284845
1314888384.35520363,0.62307930,0.29454693,-0.43280837
1314888384.40856862,0.62090051,0.29323208,-0.43408847
1314888384.44820452,0.62181044,0.29457480,-0.43417725
1314888384.50821137,0.62214220,0.29676765,-0.43274698
1314888384.55619144,0.62136805,0.29552174,-0.43031511
1314888384.60797572,0.62109303,0.29530501,-0.43279487
1314888384.65604377,0.61952323,0.29360110,-0.43274027
1314888384.70818710,0.62131351,0.29518786,-0.43356046
1314888384.75849795,0.62124717,0.29691827,-0.43448526
1314888384.81130695,0.62145066,0.29359043,-0.43367103
1314888384.85619879,0.62079942,0.29506803,-0.43332869
1314888384.90833497,0.61959124,0.29410273,-0.43377843
1314888384.94824219,0.62089974,0.29531810,-0.43384406
1314888384.99623728,0.62111491,0.29542354,-0.43240514
1314888385.05532312,0.62099212,0.29812250,-0.43191242
1314888385.10778952,0.62031484,0.29506525,-0.43257695
1314888385.15623879,0.62293011,0.29526398,-0.43074524
1314888385.20824909,0.62029463,0.29619721,-0.43505231
1314888385.25618505,0.62038052,0.29534572,-0.43594986
1314888385.31132269,0.62166256,0.29359761,-0.43456778
1314888385.35619879,0.62052476,0.29433665,-0.43359828
1314888385.40834260,0.62182194,0.29604498,-0.43379790
1314888385.44834280,0.62245411,0.29408023,-0.43452713
1314888385.51079941,0.62046421,0.29631135,-0.43439472
1314888385.55619502,0.61915195,0.29558748,-0.43433288
1314888385.60769582,0.62175578,0.29529759,-0.43275785
1314888385.65625024,0.62168509,0.29508948,-0.43626460
1314888385.70834231,0.61855340,0.29560646,-0.43553451
1314888385.75619054,0.62122899,0.29532668,-0.43499386
1314888385.80720830,0.62144876,0.29383618,-0.43367290
1314888385.85531306,0.62036842,0.29348379,-0.43411997
1314888385.90673923,0.61957133,0.29471999,-0.43404362
1314888385.94834208,0.62035334,0.29446825,-0.43425775
1314888386.00763249,0.62168753,0.29629219,-0.43380719
1314888386.05618596,0.62067550,0.29592675,-0.43308225
1314888386.10833883,0.62054276,0.29396510,-0.43333501
1314888386.15619087,0.62066525,0.29381904,-0.43125048
1314888386.20743108,0.62066007,0.29742587,-0.43543020
1314888386.25549936,0.62003511,0.29546291,-0.43506145
1314888386.30739427,0.61898935,0.29508010,-0.43265098
1314888386.35531020,0.62030900,0.29383940,-0.43282798
1314888386.40535331,0.62116766,0.29494649,-0.43382645
1314888386.44821501,0.62246293,0.29690057,-0.43402794
1314888386.50737286,0.62020099,0.29606858,-0.43440765
1314888386.55628109,0.62057245,0.29604530,-0.43256971
1314888386.60719728,0.62187785,0.29468462,-0.43300617
1314888386.65520167,0.62113458,0.29284313,-0.43238533
1314888386.70820880,0.62083143,0.29631269,-0.43489340
1314888386.75774717,0.62160897,0.29517910,-0.43302476
1314888386.81118059,0.62105787,0.29494363,-0.43344316
1314888386.85620832,0.61978257,0.29335383,-0.43285382
1314888386.91118574,0.62122267,0.29469058,-0.43291298
1314888386.95619631,0.62151408,0.29568800,-0.43459123
1314888386.99608779,0.62177175,0.29764959,-0.43446130
1314888387.05610013,0.62199724,0.29640341,-0.43301198
1314888387.11220980,0.62178344,0.29664198,-0.43211710
1314888387.15624762,0.62172449,0.29542628,-0.43327969
1314888387.20723653,0.62136257,0.29618388,-0.43486285
1314888387.25610685,0.62173456,0.29557085,-0.43535683
1314888387.30731487,0.62198281,0.29432032,-0.43351683
1314888387.35622835,0.62017739,0.29371801,-0.43283442
1314888387.40795088,0.62061030,0.29505649,-0.43204126
1314888387.45608830,0.62117130,0.29347342,-0.43394533
1314888387.50821114,0.62123454,0.29360786,-0.43511090
1314888387.55946159,0.62251991,0.29293957,-0.43127045
1314888387.60730672,0.62144315,0.29457346,-0.43367857
1314888387.65619993,0.62006730,0.29422981,-0.43466136
1314888387.69533181,0.62210691,0.29542470,-0.43351793
1314888387.75124025,0.62139297,0.29617810,-0.43434197
1314888387.80730748,0.62162524,0.29603487,-0.43264070
1314888387.84731936,0.62107784,0.29530790,-0.43305531
1314888387.90818238,0.62204552,0.29850388,-0.43419266
1314888387.95623517,0.62045282,0.29680431,-0.43452874
1314888388.00794744,0.62229264,0.29541308,-0.43259895
1314888388.05657029,0.62145466,0.29604360,-0.43329921
1314888388.10735464,0.62041324,0.29556108,-0.43309423
1314888388.15619254,0.62212384,0.29321295,-0.43350095
1314888388.20722032,0.62168461,0.29567927,-0.43393269
1314888388.24732018,0.62037712,0.29532257,-0.43374345
1314888388.29619265,0.62123030,0.29468915,-0.43278274
1314888388.34832668,0.62028658,0.29776999,-0.43272793
1314888388.40531588,0.62113017,0.29640219,-0.43202201
1314888388.45569873,0.62231642,0.29972675,-0.43392682
1314888388.50767350,0.62270260,0.29479280,-0.43244180
1314888388.55620050,0.62083358,0.29457071,-0.43280402
1314888388.60832191,0.62073302,0.29581687,-0.43437615
1314888388.65527248,0.62021154,0.29322070,-0.43230975
1314888388.69552755,0.62203097,0.29543921,-0.43482018
1314888388.75566959,0.62034494,0.29655570,-0.43414357
1314888388.80734515,0.62163091,0.29627919,-0.43251237
1314888388.85618734,0.62184352,0.29765972,-0.43549567
1314888388.90835094,0.62171876,0.29518196,-0.43340802
1314888388.95620036,0.62151504,0.29556513,-0.43459028
1314888389.00827551,0.62187219,0.29542187,-0.43301183
1314888389.05624890,0.62147176,0.29579496,-0.43303689
1314888389.09619117,0.62136370,0.29358321,-0.43289709
1314888389.15634274,0.62078631,0.29678828,-0.43334189
1314888389.19953346,0.62163258,0.29752967,-0.43459797
1314888389.25620389,0.62063479,0.29728419,-0.43361354
1314888389.30834532,0.62228692,0.29516879,-0.43272731
1314888389.35619211,0.61998135,0.29508129,-0.43376377
1314888389.40817666,0.62164557,0.29482782,-0.43470743
1314888389.45621943,0.62153399,0.29507071,-0.43432605
1314888389.50821161,0.62080497,0.29334921,-0.43344569
1314888389.55130792,0.62036169,0.29238081,-0.43437195
1314888389.60737967,0.62118942,0.29408345,-0.43355939
1314888389.65619564,0.62139487,0.29593232,-0.43434006
1314888389.70732141,0.62069893,0.29631418,-0.43490082
1314888389.74822783,0.62173486,0.29505619,-0.43314663
1314888389.80723834,0.61991435,0.29543835,-0.43260199
1314888389.85124922,0.61984402,0.29471558,-0.43389857
1314888389.90773630,0.62212980,0.29640192,-0.43300459
1314888389.94895887,0.62204617,0.29543632,-0.43455973
1314888390.00875759,0.62087804,0.29716268,-0.43398845
1314888390.05618787,0.62012172,0.29704145,-0.43338081
1314888390.09782267,0.62080330,0.29555807,-0.43320224
1314888390.14821410,0.62117064,0.29654098,-0.43357825
1314888390.19619846,0.62178975,0.29727808,-0.43419802
1314888390.24721432,0.62292016,0.29850364,-0.43505239
1314888390.30922604,0.62119257,0.29764107,-0.43306583
1314888390.35598159,0.62033582,0.29628822,-0.43206549
1314888390.39524364,0.62286460,0.29490840,-0.43191445
1314888390.45622754,0.62255478,0.29825652,-0.43455181
1314888390.50882721,0.62102944,0.29568523,-0.43383950
1314888390.55005026,0.61958176,0.29434991,-0.43391055
1314888390.60719872,0.61999571,0.29618281,-0.43338162
1314888390.64834189,0.62118679,0.29641521,-0.43331686
1314888390.69619489,0.62241924,0.29666352,-0.43480739
1314888390.74764729,0.62316090,0.29823610,-0.43321997
1314888390.79539037,0.62222922,0.29775643,-0.43339825
1314888390.85618424,0.62154859,0.29911694,-0.43357587
1314888390.89735436,0.62239397,0.29652184,-0.43299073
1314888390.94727468,0.62263250,0.29701471,-0.43337035
1314888390.99583340,0.62048811,0.29814723,-0.43375775
1314888391.04723120,0.62250578,0.29824206,-0.43312675
1314888391.09618568,0.62124741,0.29888141,-0.43423989
1314888391.14775181,0.62174076,0.29726362,-0.43277296
1314888391.19534278,0.62080365,0.29948431,-0.43271154
1314888391.24821091,0.62330401,0.29884610,-0.43295681
1314888391.29658842,0.62059838,0.29959857,-0.43168551
1314888391.35221505,0.62183928,0.29874098,-0.43316755
1314888391.39618635,0.62196416,0.29775938,-0.43341303
1314888391.44719553,0.62213302,0.29995954,-0.43251106
1314888391.49618006,0.62159222,0.29837242,-0.43291909
1314888391.54735112,0.62020826,0.29862002,-0.43170017
1314888391.59619617,0.62208390,0.29896352,-0.43120867
1314888391.65475702,0.62141305,0.29752392,-0.43383145
1314888391.69954133,0.62221158,0.30205420,-0.43317083
1314888391.74718165,0.62173039,0.29763368,-0.43290600
1314888391.79620504,0.61946362,0.29643449,-0.43341312
1314888391.85123539,0.62296325,0.29834890,-0.43206370
1314888391.89618230,0.62184316,0.29923105,-0.43304110
1314888391.94719911,0.62232876,0.30009249,-0.43366921
1314888391.99542379,0.62152952,0.29862979,-0.43396276
1314888392.04821682,0.62175387,0.29900268,-0.43460190
1314888392.09618235,0.61980659,0.29617128,-0.43209416
1314888392.14820266,0.62001294,0.29789728,-0.43287390
1314888392.19542122,0.62213850,0.29824072,-0.43262807
1314888392.24721742,0.62194729,0.29997116,-0.43343002
1314888392.29616737,0.62106389,0.29813260,-0.43294680
1314888392.34762168,0.62197745,0.29800224,-0.43315449
1314888392.39530015,0.62035590,0.29763407,-0.43155497
1314888392.44820762,0.62119794,0.29840004,-0.43514770
1314888392.49634075,0.62208170,0.29972392,-0.43342075
1314888392.55221629,0.62172663,0.29812518,-0.43290979
1314888392.60022497,0.62147397,0.29947546,-0.43254429
1314888392.64735246,0.62068135,0.29715261,-0.43283123
1314888392.69618154,0.62234586,0.29984385,-0.43340686
1314888392.74814868,0.62087834,0.30010736,-0.43362042
1314888392.79618335,0.62060010,0.29738969,-0.43192896
1314888392.84820223,0.62068135,0.29715261,-0.43283123
1314888392.89526367,0.62136996,0.29971689,-0.43203270
1314888392.94829750,0.62323195,0.30033222,-0.43400994
1314888393.00971937,0.62201941,0.29946661,-0.43225423
1314888393.04727435,0.61944497,0.29543269,-0.43158981
1314888393.09622407,0.62073982,0.29691985,-0.43412420
1314888393.14802957,0.62210703,0.29640627,-0.43339527
1314888393.19625282,0.62311059,0.29787761,-0.43412870
1314888393.24831867,0.62125891,0.30035156,-0.43386054
1314888393.29600525,0.62148327,0.29726511,-0.43265754
1314888393.34825516,0.62147576,0.29824814,-0.43266508
1314888393.39602017,0.62200880,0.29787359,-0.43263263
1314888393.44731140,0.62133151,0.29925725,-0.43501666
1314888393.49618196,0.62276024,0.30010539,-0.43533251
1314888393.54732037,0.62225580,0.29726058,-0.43300378
1314888393.59623098,0.61856908,0.29705203,-0.43281853
1314888393.65219855,0.62173134,0.29751080,-0.43290508
1314888393.69623923,0.62092048,0.29803729,-0.43542013
1314888393.74819350,0.62289643,0.29863086,-0.43544400
1314888393.79586673,0.62052798,0.29789424,-0.43310475
1314888393.84724736,0.62083095,0.29690248,-0.43256149
1314888393.89618230,0.62117064,0.29654098,-0.43357825
1314888393.94823027,0.62110347,0.29937583,-0.43438131
1314888393.99624610,0.62087911,0.29802138,-0.43386483
1314888394.04820347,0.61862868,0.29865953,-0.43386519
1314888394.09531641,0.62140554,0.29850695,-0.43383899
1314888394.15223360,0.62157017,0.29629079,-0.43355414
1314888394.19618130,0.62081182,0.29987466,-0.43479055
1314888394.24747443,0.62090248,0.29840881,-0.43568340
1314888394.29617667,0.62157488,0.30011731,-0.43526891
1314888394.34781575,0.62027049,0.29789576,-0.43298933
1314888394.39540935,0.62156838,0.29751810,-0.43343335
1314888394.44845152,0.62268543,0.29850081,-0.43454629
1314888394.49556231,0.62088680,0.29900149,-0.43361193
1314888394.54459643,0.62098145,0.29998881,-0.43413296
1314888394.59560108,0.62134117,0.29653224,-0.43291971
1314888394.64734221,0.61931610,0.29840201,-0.43343562
1314888394.69627953,0.62080032,0.29840448,-0.43516991
1314888394.74731684,0.62276340,0.29922211,-0.43311951
1314888394.79629445,0.62086612,0.29726386,-0.43191320
1314888394.84826088,0.62240934,0.29848206,-0.43248492
1314888394.90733123,0.62025237,0.29728574,-0.43337530
1314888394.95221567,0.61995697,0.29827607,-0.43378833
1314888394.99554992,0.62070352,0.29915914,-0.43673825
1314888395.04723072,0.62344396,0.29688004,-0.43306455
1314888395.09618115,0.62142813,0.29653946,-0.43369368
1314888395.14747190,0.62140834,0.29813832,-0.43383616
1314888395.19535804,0.62163264,0.29851121,-0.43447530
1314888395.24822450,0.62238806,0.29875532,-0.43508390
1314888395.29633236,0.62085342,0.29741278,-0.43438101
1314888395.35236883,0.62072104,0.29937738,-0.43414307
1314888395.40735483,0.61976111,0.29716155,-0.43275285
1314888395.44835401,0.61943346,0.29840341,-0.43368864
1314888395.49640489,0.62106436,0.29754284,-0.43527871
1314888395.54559135,0.62309748,0.29613853,-0.43229973
1314888395.59531951,0.62006009,0.29815748,-0.43430087
1314888395.65122938,0.62095463,0.29753998,-0.43489546
1314888395.69530487,0.62173712,0.29873666,-0.43265405
1314888395.75222802,0.62323326,0.29969466,-0.43179882
1314888395.79615283,0.61961240,0.29728881,-0.43302163
1314888395.84927726,0.62353951,0.29774448,-0.43358463
1314888395.89618087,0.62369376,0.30033931,-0.43515235
1314888395.94728899,0.62165731,0.29826111,-0.43408275
1314888395.99609804,0.62282574,0.30046099,-0.43416333
1314888396.04821444,0.62182683,0.29739371,-0.43354782
1314888396.09557581,0.62042385,0.29715413,-0.43271583
1314888396.14888763,0.62141222,0.29862836,-0.43370971
1314888396.20804715,0.62174904,0.29863551,-0.43472928
1314888396.24732208,0.61997581,0.29680008,-0.43364677
1314888396.29619241,0.62113649,0.29703829,-0.43410292
1314888396.34725595,0.62037641,0.29740858,-0.43349907
1314888396.39604211,0.62106109,0.29850125,-0.43294963
1314888396.44829082,0.62106633,0.29827866,-0.43515414
1314888396.49531507,0.62226218,0.29887822,-0.43496200
1314888396.54724050,0.62206727,0.29764083,-0.43392560
1314888396.59550071,0.62081587,0.29788694,-0.43269926
1314888396.64732623,0.61928135,0.29850751,-0.43175104
1314888396.69554162,0.62299526,0.29959357,-0.43362841
1314888396.74831343,0.62112433,0.29863569,-0.43411520
1314888396.79565096,0.62172174,0.29677644,-0.43315986
1314888396.84825373,0.62063909,0.29824114,-0.43115422
1314888396.89619160,0.61985189,0.29765880,-0.43340033
1314888396.94720674,0.62083089,0.30036181,-0.43440366
1314888396.99574637,0.62168026,0.30021989,-0.43344674
1314888397.04718208,0.62276423,0.29811767,-0.43324122
1314888397.09616685,0.62155414,0.29739812,-0.43369287
1314888397.14787531,0.62181872,0.29798493,-0.43134615
1314888397.19527531,0.62128633,0.29875126,-0.43358782
1314888397.24821973,0.62191778,0.29985410,-0.43394998
1314888397.29633665,0.62132812,0.29923409,-0.43281025
1314888397.34894133,0.62131846,0.29751816,-0.43318772
1314888397.39556193,0.62196612,0.29849520,-0.43328848
1314888397.44834042,0.62169868,0.29827702,-0.43563804
1314888397.49617982,0.62132883,0.30060744,-0.43489683
1314888397.54726887,0.62064534,0.29789567,-0.43335781
1314888397.59521508,0.62166119,0.29875118,-0.43395630
1314888397.64823318,0.62167352,0.29911691,-0.43369868
1314888397.69532800,0.62014425,0.29853335,-0.43507764
1314888397.75122571,0.62117279,0.29923990,-0.43320835
1314888397.80472159,0.61982799,0.29582292,-0.43403730
1314888397.84834552,0.61982554,0.29567689,-0.43182996
1314888397.89618325,0.62172258,0.29567203,-0.43328157
1314888397.94746876,0.62207776,0.29825231,-0.43366987
